Santa Rosa, CA

2:06 AM PDT on June 23, 2017 (GMT -0700)
Sonoma County

Weather History for KSTS - January, 2014

Change the Weather History Date:

Sunday, January 19, 2014

  Actual Average Record
Temperature  
Mean Temperature 48 °F 47 °F  
Max Temperature 70 °F 57 °F 70 °F (2014)
Min Temperature 26 °F 37 °F 26 °F (2014)
Degree Days  
Heating Degree Days 17    
Month to date heating degree days 317  
Since 1 July heating degree days 1428  
Cooling Degree Days 0    
Month to date cooling degree days 0  
Year to date cooling degree days 0  
Moisture  
Dew Point 30 °F    
Average Humidity 58    
Maximum Humidity 92    
Minimum Humidity 24    
Precipitation  
Precipitation 0.00 in 0.18 in 1.65 in (2010)
Month to date precipitation 0.08 4.97  
Year to date precipitation 0.08 4.97  
Since 1 July precipitation 2.10  
Sea Level Pressure  
Sea Level Pressure 30.08 in    
Wind  
Wind Speed 2 mph (SW)    
Max Wind Speed 7 mph    
Max Gust Speed 8 mph    
Visibility 10 miles    
Events      
T = Trace of Precipitation, MM = Missing Value Source: NWS Daily Summary

Daily Weather History Graph

Daily Weather History Graph

Search for Another Location

Airport or City:

Trip Planner

Search our weather history database for the weather conditions in past years. The results will help you decide how hot, cold, wet, or windy it might be!

Date:

Astronomy

Jan. 19, 2014 Rise Set
Actual Time 7:25 AM PST 5:18 PM PST
Civil Twilight 6:56 AM PST 5:47 PM PST
Nautical Twilight 6:24 AM PST 6:20 PM PST
Astronomical Twilight 5:52 AM PST 6:51 PM PST
Moon 8:58 PM PST (1/19) 9:01 AM PST (1/19)
Length of Visible Light 10h 50m
Length of Day
9h 53m
Waning Gibbous, 89% of the Moon is Illuminated
Jan 19
Waning Gibbous
Jan 23
Last Quarter
Jan 30
New
Feb 6
First Quarter
Feb 14
Full

Hourly Weather History & Observations

Time (PST) Temp. Windchill Dew Point Humidity Pressure Visibility Wind Dir Wind Speed Gust Speed Precip Events Conditions
12:53 AM 36.0 °F - 30.0 °F 79% 30.06 in 10.0 mi Calm Calm - N/A   Clear
1:53 AM 34.0 °F - 28.9 °F 82% 30.06 in 10.0 mi Calm Calm - N/A   Clear
2:53 AM 33.1 °F - 28.0 °F 82% 30.07 in 10.0 mi Calm Calm - N/A   Clear
3:53 AM 33.1 °F - 28.9 °F 85% 30.06 in 10.0 mi Calm Calm - N/A   Clear
4:53 AM 30.0 °F - 27.0 °F 88% 30.07 in 10.0 mi Calm Calm - N/A   Clear
5:53 AM 30.0 °F - 28.0 °F 92% 30.08 in 10.0 mi Calm Calm - N/A   Clear
6:53 AM 28.0 °F - 27.0 °F 96% 30.09 in 8.0 mi Calm Calm - N/A   Clear
7:53 AM 28.9 °F - 26.1 °F 89% 30.10 in 10.0 mi Calm Calm - N/A   Clear
8:53 AM 35.1 °F - 30.9 °F 85% 30.12 in 10.0 mi Calm Calm - N/A   Clear
9:53 AM 45.0 °F - 30.9 °F 58% 30.13 in 10.0 mi Calm Calm - N/A   Clear
10:53 AM 52.0 °F - 30.9 °F 45% 30.12 in 10.0 mi SE 3.5 mph - N/A   Clear
11:53 AM 57.0 °F - 30.0 °F 36% 30.10 in 10.0 mi Calm Calm - N/A   Clear
12:53 PM 62.1 °F - 28.9 °F 29% 30.07 in 10.0 mi Calm Calm - N/A   Clear
1:53 PM 66.9 °F - 28.9 °F 24% 30.05 in 10.0 mi South 3.5 mph - N/A   Clear
2:53 PM 68.0 °F - 30.0 °F 24% 30.03 in 10.0 mi SE 5.8 mph - N/A   Clear
3:53 PM 70.0 °F - 33.1 °F 26% 30.02 in 10.0 mi South 4.6 mph - N/A   Clear
4:53 PM 64.9 °F - 34.0 °F 32% 30.02 in 10.0 mi South 4.6 mph - N/A   Clear
5:53 PM 61.0 °F - 32.0 °F 34% 30.04 in 10.0 mi South 4.6 mph - N/A   Clear
6:53 PM 51.1 °F - 33.1 °F 50% 30.06 in 10.0 mi WNW 3.5 mph - N/A   Clear
7:53 PM 46.9 °F - 33.1 °F 59% 30.07 in 10.0 mi NNW 3.5 mph - N/A   Clear
8:53 PM 43.0 °F 40.3 °F 33.1 °F 68% 30.09 in 10.0 mi NNW 4.6 mph - N/A   Clear
9:53 PM 39.9 °F 36.7 °F 32.0 °F 73% 30.10 in 10.0 mi NW 4.6 mph - N/A   Clear
10:53 PM 37.0 °F - 32.0 °F 82% 30.11 in 10.0 mi Calm Calm - N/A   Clear
11:53 PM 37.0 °F 33.3 °F 32.0 °F 82% 30.11 in 10.0 mi WNW 4.6 mph - N/A   Clear